Location: Mentone
(34.5413°N, 85.5351°W)
Time: 19:05:44
(UTC-05:00)

Centaur AC-72 - Visible Passes

Search period start: 28 May 2016 00:00
Search period end: 07 June 2016 00:00
Orbit: 1112 x 35244 km, 19.6° (Epoch: 26 May)

Date Brightness Start Highest point End Pass type
(mag) Time Alt. Az. Time Alt. Az. Time Alt. Az.
28 May 7.4 16:23:15 10° W 18:23:21 47° WSW 01:40:07 10° SW visible
29 May 7.0 13:20:36 10° SW 16:35:10 72° S 22:59:20 26° S visible
31 May 11.1 20:15:09 10° W 20:56:19 12° W 21:49:00 10° W visible
01 Jun 7.4 16:06:48 10° W 18:06:42 48° WSW 01:24:35 10° SW visible
02 Jun 6.9 13:04:40 10° WSW 16:24:06 72° S 22:45:10 23° S visible
04 Jun 11.1 19:50:01 10° W 20:39:48 13° W 21:47:43 10° W visible
05 Jun 7.3 15:50:24 10° W 17:50:01 49° WSW 01:09:00 10° SW visible
06 Jun 6.9 12:48:45 10° WSW 16:13:28 72° S 22:30:57 20° S visible
